Location: Waco, TX
(31.5480°N, 97.1670°W)
Time: 00:52:09
(UTC-06:00)

ISS - Pass Details

Date: 15 January 2018
Orbit: 402 x 407 km, 51.6° (Epoch: 21 January)

Event Time Altitude Azimuth Distance (km) Brightness Sun altitude
Rises 22:42:34 0° 235° (SW) 2,299 - -62.1°
Reaches altitude 10° 22:44:40 10° 240° (WSW) 1,444 - -62.5°
Maximum altitude 22:47:49 49° 317° (NW) 523 - -63.1°
Drops below altitude 10° 22:50:59 10° 34° (NE) 1,453 - -63.8°
Sets 22:53:07 0° 40° (NE) 2,316 - -64.2°
